This demonstration page uses our WeatherBlox Daily Observations layout. Learn more.

Left ArrowRight Arrow

38.88101, -77.10428

Hourly Observations for July 8, 2021

Temp ( °F °C ) Dew Point ( °F °C ) Humidity (%) Winds ( mph kmh ) Pressure ( in mb ) Visibility ( mi km ) Precip ( " mm )
12:52 am 00:52 Cloudy 82 27.8 71 21.7 69 69 S 10 17 29.94 1014 10 16 N/A
1:52 am 01:52 Cloudy 81 27.2 71 21.7 72 72 S 6 9 29.93 1014 10 16 N/A
2:52 am 02:52 Cloudy 80 26.7 71 21.7 74 74 SW 6 9 29.94 1014 10 16 N/A
3:52 am 03:52 Cloudy with Light Rain 80 26.7 71 21.7 74 74 SSW 8 13 29.95 1014 10 16 0.00 0.00
4:52 am 04:52 Cloudy 79 26.1 70 21.1 74 74 SSW 7 11 29.94 1014 10 16 0.00 0.00
5:52 am 05:52 Cloudy 79 26.1 69 20.6 72 72 SSW 5 7 29.95 1014 10 16 N/A
6:52 am 06:52 Cloudy 79 26.1 69 20.6 72 72 S 6 9 29.96 1014 10 16 N/A
7:52 am 07:52 Cloudy 79 26.1 70 21.1 74 74 S 7 11 29.96 1015 10 16 N/A
8:52 am 08:52 Cloudy 80 26.7 71 21.7 74 74 S 8 13 29.98 1015 10 16 N/A
9:52 am 09:52 Cloudy 80 26.7 71 21.7 74 74 S 9 15 29.98 1015 10 16 N/A
10:52 am 10:52 Cloudy 82 27.8 72 22.2 72 72 S 10 17 29.98 1015 10 16 N/A
11:52 am 11:52 Cloudy 83 28.3 72 22.2 70 70 S 13 20 29.99 1016 10 16 N/A
12:52 pm 12:52 Cloudy 85 29.4 74 23.3 70 70 S 13 20 29.98 1015 10 16 N/A
1:52 pm 13:52 Cloudy with Nearby Thunderstorms 82 27.8 73 22.8 74 74 SSE 14 22 29.97 1015 9 14 0.00 0.00
2:05 pm 14:05 Cloudy with Thunderstorms 81 27.2 71 21.7 72 72 S 15 24 29.98 1015 10 16 0.00 0.00
2:19 pm 14:19 Cloudy with Thunderstorms 78 25.6 67 19.4 69 69 WSW 14 22 29.98 1015 10 16 0.01 0.25
2:31 pm 14:31 Cloudy with Thunderstorms 80 26.7 69 20.6 69 69 SSE 6 9 29.97 1015 10 16 0.02 0.51
2:44 pm 14:44 Cloudy 82 27.8 70 21.1 67 67 SSE 7 11 29.96 1014 10 16 0.02 0.51
2:52 pm 14:52 Cloudy 83 28.3 71 21.7 67 67 S 8 13 29.96 1015 10 16 0.02 0.51
3:00 pm 15:00 Cloudy with Nearby Thunderstorms 83 28.3 71 21.7 67 67 S 7 11 29.96 1014 10 16 N/A
3:10 pm 15:10 Partly Cloudy 82 27.8 71 21.7 69 69 S 10 17 29.97 1015 9 14 N/A
3:14 pm 15:14 Cloudy with Rain 81 27.2 72 22.2 74 74 SSW 10 17 29.97 1015 4 6 0.02 0.51
3:25 pm 15:25 Cloudy with Light Rain 80 26.7 70 21.1 71 71 SW 16 26 29.97 1015 10 16 0.04 1.02
3:46 pm 15:46 Mostly Cloudy with Nearby Thunderstorms 81 27 70 21 70 70 SW 12 19 29.96 1014 10 16 0.04 1.02
3:52 pm 15:52 Mostly Cloudy with Nearby Thunderstorms 82 27.8 71 21.7 69 69 SW 13 20 29.96 1015 10 16 0.04 1.02
3:58 pm 15:58 Mostly Cloudy 83 28.3 71 21.7 67 67 SW 10 17 29.96 1014 10 16 N/A
4:52 pm 16:52 Mostly Cloudy 83 28.3 68 20 61 61 S 18 30 29.95 1014 10 16 N/A
5:52 pm 17:52 Cloudy 81 27.2 67 19.4 62 62 S 18 30 29.95 1014 10 16 N/A
6:52 pm 18:52 Cloudy with Light Rain 79 26.1 65 18.3 62 62 SSE 14 22 29.95 1014 10 16 0.00 0.00
7:28 pm 19:28 Cloudy with Rain 74 23.3 67 19.4 79 79 SSE 6 9 29.95 1014 4 6 0.01 0.25
7:44 pm 19:44 Cloudy with Light Rain 73 22.8 67 19.4 81 81 N N/A 29.95 1014 9 14 0.05 1.27
7:52 pm 19:52 Cloudy with Light Rain 73 22.8 68 20 84 84 NNE 3 6 29.94 1014 10 16 0.05 1.27
8:52 pm 20:52 Cloudy with Light Rain 73 22.8 68 20 84 84 NNE 8 13 29.91 1013 10 16 0.02 0.51
9:01 pm 21:01 Cloudy with Rain 72 22.2 68 20 87 87 NNE 10 17 29.90 1012 5 8 0.02 0.51
9:52 pm 21:52 Cloudy with Light Rain 73 22.8 68 20 84 84 NNE 9 15 29.89 1012 10 16 0.11 2.79
10:10 pm 22:10 Cloudy 73 22.8 68 20 84 84 NNE 12 19 29.88 1012 10 16 0.00 0.00
10:21 pm 22:21 Mostly Cloudy 73 22.8 68 20 84 84 NNE 10 17 29.87 1011 10 16 0.00 0.00
10:24 pm 22:24 Cloudy 73 22.8 68 20 84 84 NNE 12 19 29.87 1011 10 16 0.00 0.00
10:52 pm 22:52 Cloudy 74 23.3 68 20 82 82 NNE 12 19 29.85 1011 10 16 0.00 0.00
11:52 pm 23:52 Cloudy 74 23.3 68 20 82 82 N 15 24 29.83 1010 10 16 N/A

Powered by AerisWeather